Weather History for KWLD - January, 2013

Change the Weather History Date:

Sunday, January 27, 2013

  Actual Average Record
Temperature  
Mean Temperature 56 °F -  
Max Temperature 68 °F 43 °F 73 °F (2015)
Min Temperature 44 °F 24 °F 5 °F (2004)
Degree Days  
Heating Degree Days 9    
Growing Degree Days 6 (Base 50)    
Moisture  
Dew Point 48 °F    
Average Humidity 84    
Maximum Humidity 100    
Minimum Humidity 59    
Precipitation  
Precipitation 0.00 in - - ()
Sea Level Pressure  
Sea Level Pressure 29.89 in    
Wind  
Wind Speed 17 mph (South)    
Max Wind Speed 26 mph    
Max Gust Speed 41 mph    
Visibility 8 miles    
Events      
Averages and records for this station are not official NWS values.
T = Trace of Precipitation, MM = Missing Value Source: NWS Daily Summary

Daily Weather History Graph

Daily Weather History Graph

Search for Another Location

Airport or City:

Trip Planner

Search our weather history database for the weather conditions in past years. The results will help you decide how hot, cold, wet, or windy it might be!

Date:

Astronomy

Jan. 27, 2013 Rise Set
Actual Time 7:34 AM CST 5:47 PM CST
Civil Twilight 7:06 AM CST 6:15 PM CST
Nautical Twilight 6:35 AM CST 6:46 PM CST
Astronomical Twilight 6:04 AM CST 7:17 PM CST
Moon 6:40 PM CST (1/27) 7:30 AM CST (1/27)
Length of Visible Light 11h 08m
Length of Day
10h 13m
Full, 100% of the Moon is Illuminated
Jan 27
Full
Feb 3
Last Quarter
Feb 10
New
Feb 17
First Quarter
Feb 25
Full

Hourly Weather History & Observations

Time (CST) Temp. Windchill Dew Point Humidity Pressure Visibility Wind Dir Wind Speed Gust Speed Precip Events Conditions
12:17 AM 44.6 °F 37.8 °F 37.4 °F 76% 30.04 in 10.0 mi SSE 15.0 mph - N/A   Overcast
12:37 AM 44.6 °F 37.4 °F 37.4 °F 76% 30.02 in 10.0 mi SSE 16.1 mph 24.2 mph N/A   Mostly Cloudy
12:54 AM 45.0 °F 38.2 °F 37.9 °F 76% 30.00 in 10.0 mi SSE 15.0 mph 23.0 mph N/A   Mostly Cloudy
1:40 AM 44.6 °F 38.1 °F 39.2 °F 81% 30.01 in 10.0 mi South 13.8 mph 21.9 mph N/A   Mostly Cloudy
1:54 AM 44.1 °F 37.1 °F 39.0 °F 82% 30.01 in 10.0 mi SSE 15.0 mph - N/A   Overcast
2:33 AM 44.6 °F 38.4 °F 39.2 °F 81% 30.00 in 10.0 mi SSE 12.7 mph - N/A   Overcast
2:54 AM 45.0 °F 38.9 °F 39.0 °F 80% 30.00 in 10.0 mi SSE 12.7 mph - N/A   Overcast
3:16 AM 44.6 °F 38.4 °F 39.2 °F 81% 29.98 in 10.0 mi SSE 12.7 mph - N/A   Overcast
3:54 AM 44.1 °F 37.7 °F 41.0 °F 89% 29.97 in 9.0 mi SSE 12.7 mph - N/A   Overcast
4:54 AM 44.1 °F 37.4 °F 43.0 °F 96% 29.95 in 4.0 mi SSE 13.8 mph - N/A   Overcast
5:05 AM 44.6 °F 38.1 °F 42.8 °F 93% 29.94 in 3.0 mi SSE 13.8 mph 20.7 mph N/A   Overcast
5:13 AM 44.6 °F 37.8 °F 42.8 °F 93% 29.93 in 2.5 mi SSE 15.0 mph - N/A   Overcast
5:25 AM 44.6 °F 38.1 °F 44.6 °F 100% 29.92 in 1.8 mi SSE 13.8 mph - N/A   Overcast
6:43 AM 46.4 °F 38.7 °F 46.4 °F 100% 29.91 in 2.5 mi South 20.7 mph 28.8 mph N/A   Overcast
6:51 AM 48.2 °F - 48.2 °F 100% 29.90 in 4.0 mi South 20.7 mph 31.1 mph N/A   Overcast
6:54 AM 48.0 °F - 48.0 °F 100% 29.91 in 4.0 mi South 19.6 mph 31.1 mph N/A   Overcast
7:54 AM 48.0 °F - 48.0 °F 100% 29.91 in 6.0 mi South 21.9 mph 32.2 mph N/A   Overcast
8:44 AM 48.2 °F - 48.2 °F 100% 29.89 in 5.0 mi South 23.0 mph 29.9 mph N/A   Overcast
8:54 AM 48.9 °F - 48.0 °F 97% 29.90 in 5.0 mi South 20.7 mph 28.8 mph N/A   Overcast
9:54 AM 50.0 °F - 48.9 °F 96% 29.88 in 5.0 mi South 18.4 mph 27.6 mph N/A   Overcast
10:54 AM 53.1 °F - 51.1 °F 93% 29.88 in 8.0 mi South 18.4 mph 26.5 mph N/A   Overcast
11:38 AM 57.2 °F - 51.8 °F 82% 29.86 in 10.0 mi SSW 21.9 mph 27.6 mph N/A   Overcast
11:54 AM 59.0 °F - 52.0 °F 78% 29.85 in 10.0 mi SSW 18.4 mph 27.6 mph N/A   Overcast
12:54 PM 62.1 °F - 53.1 °F 72% 29.81 in 10.0 mi SSW 23.0 mph 36.8 mph N/A   Overcast
1:36 PM 64.4 °F - 53.6 °F 68% 29.78 in 10.0 mi South 24.2 mph 34.5 mph N/A   Scattered Clouds
1:54 PM 66.9 °F - 53.1 °F 61% 29.77 in 10.0 mi South 26.5 mph 41.4 mph N/A   Clear
2:54 PM 68.0 °F - 53.1 °F 59% 29.75 in 10.0 mi South 26.5 mph 35.7 mph N/A   Clear
3:54 PM 66.0 °F - 53.1 °F 63% 29.76 in 10.0 mi South 23.0 mph 29.9 mph N/A   Scattered Clouds
4:54 PM 64.9 °F - 53.1 °F 65% 29.78 in 10.0 mi South 15.0 mph 25.3 mph N/A   Clear
5:54 PM 64.0 °F - 54.0 °F 70% 29.78 in 10.0 mi South 20.7 mph 26.5 mph N/A   Clear
6:54 PM 62.1 °F - 54.0 °F 75% 29.79 in 10.0 mi South 15.0 mph 23.0 mph N/A   Clear
7:54 PM 61.0 °F - 55.0 °F 81% 29.80 in 10.0 mi South 19.6 mph 26.5 mph N/A   Clear
8:54 PM 59.0 °F - 55.0 °F 87% 29.81 in 10.0 mi South 19.6 mph - N/A   Clear
9:54 PM 57.9 °F - 55.9 °F 93% 29.81 in 10.0 mi South 19.6 mph - N/A   Clear
10:54 PM 59.0 °F - 55.9 °F 90% 29.81 in 10.0 mi South 18.4 mph - N/A   Clear
11:54 PM 60.1 °F - 55.9 °F 86% 29.80 in 10.0 mi South 17.3 mph - N/A   Clear